Flag for China Weather past 2 weeks in Tianjin, China

Now
64 °F

Clear.


Feels Like: 64 °F
Forecast: 57 / 82 °F
Wind: 6 mph from West

Location: Tianjin / Zhangguizhu


UV Index: 5 (Moderate)

Visibility: 10 mi


Pressure: 30.01 "Hg

Humidity: 43%

Dew point: 41 °F

Location of TianjinLocation

Historic Weather in Tianjin

°F

Tianjin temperature yesterday

Maximum temperature yesterday: 79 °F (at 2:00 PM)
Minimum temperature yesterday: 54 °F (at 6:00 AM)
Average temperature yesterday: 67 °F

Past Weeks' High & Low Weather Summary

 TemperatureHumidityPressure
High86 °F (Apr 9, 3:00 PM)94% (Apr 13, 3:00 AM)30.24 "Hg (Apr 13, 3:00 AM)
Low46 °F (Apr 12, 5:00 AM)9% (Apr 16, 5:00 PM)29.77 "Hg (Apr 9, 1:00 PM)
Average61 °F49%30.02 "Hg
* Reported Apr 6 11:00 PM — Apr 21 11:30 PM, Tianjin, Weather by CustomWeather, © 2014

Note: Actual official high and low records may vary slightly from our data, if they occured in-between our weather recording intervals... More about our weather records

Advertising

Historic Weather Conditions — Data for Previous 24 hours

 ConditionsComfort  
Time TempWeatherWind HumidityBarometerVisibility
11:30 PM
Apr 21
64 °FClear.10 mph43%30.01 "Hg5 mi
11:00 PM64 °FClear.8 mph43%30.01 "Hg4 mi
10:30 PM66 °FClear.13 mph43%30.01 "Hg4 mi
10:00 PM68 °FClear.13 mph35%30.01 "Hg4 mi
9:30 PM66 °FClear.6 mph37%30.01 "Hg4 mi
9:00 PM66 °FClear.3 mph37%30.01 "Hg4 mi
8:30 PM68 °FClear.6 mph33%29.98 "Hg4 mi
8:00 PM66 °FClear.3 mph35%29.98 "Hg4 mi
7:30 PM68 °FClear.6 mph30%29.98 "Hg5 mi
7:00 PM68 °FClear.6 mph28%29.95 "Hg10 mi
6:30 PM70 °FSunny.10 mph21%29.95 "Hg10 mi
6:00 PM72 °FSunny.10 mph20%29.95 "Hg10 mi
5:30 PM72 °FSunny.10 mph20%29.95 "Hg10 mi
5:00 PM75 °FSunny.1 mph14%29.95 "Hg10 mi
4:30 PM75 °FPassing clouds.3 mph14%29.95 "HgN/A
4:00 PM77 °FSunny.3 mph13%29.95 "Hg10 mi
3:30 PM77 °FSunny.3 mph13%29.95 "Hg10 mi
3:00 PM77 °FSunny.3 mph13%29.95 "Hg10 mi
2:30 PM77 °FSunny.6 mph13%29.98 "Hg10 mi
2:00 PM79 °FSunny.1 mph12%29.98 "Hg10 mi
1:30 PM75 °FPassing clouds.3 mph13%30.01 "HgN/A
1:00 PM75 °FSunny.6 mph13%30.01 "Hg10 mi
12:30 PM75 °FPassing clouds.3 mph13%30.01 "HgN/A
12:00 PM75 °FSunny.1 mph14%30.04 "Hg10 mi
11:30 AM75 °FSunny.3 mph14%30.04 "Hg10 mi
10:30 AM72 °FPassing clouds.6 mph22%30.04 "HgN/A
10:00 AM70 °FClear.3 mph27%30.07 "Hg4 mi
9:30 AM70 °FHaze.6 mph33%30.07 "Hg3 mi
9:00 AM66 °FHaze.6 mph43%30.04 "Hg2 mi
8:30 AM63 °FHaze.6 mph52%30.04 "Hg2 mi
8:00 AM63 °FHaze.6 mph52%30.04 "Hg1 mi
7:30 AM61 °FHaze.8 mph59%30.04 "Hg1 mi
7:00 AM59 °FFog.6 mph72%30.04 "Hg1 mi
6:30 AM57 °FFog.3 mph77%30.04 "Hg1 mi
6:00 AM54 °FFog.1 mph88%30.01 "Hg1 mi
5:00 AM55 °FFog.1 mph77%30.01 "Hg1 mi
4:30 AM57 °FFog.1 mph77%30.01 "Hg1 mi
4:00 AM57 °FFog.1 mph77%30.01 "Hg1 mi
3:30 AM57 °FHaze.1 mph72%30.01 "Hg1 mi
3:00 AM59 °FHaze.1 mph68%30.01 "Hg1 mi
2:30 AM59 °FHaze.1 mph72%30.01 "Hg1 mi
2:00 AM59 °FHaze.3 mph68%30.01 "Hg1 mi
1:30 AM61 °FHaze.6 mph63%30.01 "Hg1 mi
1:00 AM61 °FHaze.3 mph63%30.01 "Hg2 mi
12:30 AM61 °FHaze.6 mph63%30.01 "Hg2 mi
12:00 AM61 °FHaze.3 mph59%30.01 "Hg2 mi
Weather by CustomWeather, © 2014

See weather overview